Total_Precipitation_Accumulation
0.00 0.01 0.02 0.02 0.02 0.04 0.06 0.09 0.15 0.18 0.16 0.18 0.34 0.54 0.58 0.76 1.06 1.37 1.72 1.96 2.29 2.62 2.98 3.39 3.48 3.71 4.03 4.64 5.09 5.31 5.31 5.11 4.81 4.43 4.04 3.87 3.78 3.73 3.56 3.43 3.30 3.16 3.07 3.15
0.01 0.03 0.01 0.01 0.02 0.04 0.07 0.11 0.15 0.17 0.15 0.18 0.32 0.53 0.65 1.01 1.33 1.39 1.56 1.70 1.90 2.33 2.66 2.98 3.15 3.23 3.64 4.23 4.66 4.80 4.57 4.44 4.27 4.02 3.92 3.91 4.11 3.80 3.53 3.42 3.28 3.00 2.98 3.08
0.03 0.03 0.02 0.02 0.02 0.03 0.05 0.07 0.12 0.18 0.17 0.24 0.35 0.68 0.89 1.14 1.28 1.32 1.42 1.58 1.69 1.97 2.29 2.60 2.71 2.87 3.08 3.18 3.43 3.60 3.77 3.69 3.58 3.56 3.54 3.59 3.80 3.56 3.37 3.25 3.17 2.82 2.68 2.69
0.03 0.03 0.03 0.04 0.05 0.05 0.06 0.07 0.07 0.09 0.17 0.31 0.45 0.99 1.24 1.21 1.26 1.40 1.40 1.39 1.64 1.93 1.93 2.04 2.25 2.42 2.67 2.79 2.98 3.04 3.08 3.20 3.23 3.31 3.22 3.06 2.96 2.87 2.82 2.88 2.84 2.80 2.68 2.59
0.05 0.04 0.03 0.05 0.06 0.04 0.05 0.05 0.06 0.10 0.20 0.33 0.45 0.77 1.17 1.51 1.58 1.40 1.34 1.24 1.44 1.58 1.49 1.48 1.64 1.78 2.00 2.19 2.42 2.58 2.70 2.80 2.92 2.98 2.90 2.86 2.64 2.63 2.68 2.69 2.74 2.70 2.67 2.65
0.05 0.05 0.04 0.04 0.04 0.04 0.04 0.07 0.13 0.25 0.43 0.67 0.57 0.71 1.12 1.48 1.72 1.46 1.26 1.18 1.28 1.26 1.23 1.34 1.45 1.55 1.68 1.92 2.10 2.25 2.40 2.46 2.57 2.62 2.65 2.62 2.57 2.57 2.57 2.54 2.54 2.53 2.55 2.46
0.12 0.12 0.10 0.06 0.06 0.06 0.06 0.13 0.46 0.83 1.11 1.14 0.73 0.79 1.15 1.15 1.18 1.20 1.15 1.19 1.20 1.13 1.06 1.07 1.18 1.32 1.49 1.69 1.81 1.87 2.01 2.10 2.11 2.16 2.22 2.23 2.31 2.43 2.30 2.21 2.23 2.24 2.09 1.99
0.17 0.24 0.15 0.09 0.09 0.09 0.11 0.15 0.51 0.79 0.85 0.94 0.82 1.09 1.42 1.14 1.06 0.99 1.06 1.16 1.14 1.00 0.91 0.95 1.07 1.13 1.20 1.37 1.55 1.59 1.70 1.81 1.96 1.99 1.98 2.01 2.03 2.05 1.95 2.00 1.98 1.95 1.73 1.66
0.10 0.11 0.08 0.08 0.09 0.11 0.15 0.18 0.23 0.45 0.51 0.71 0.92 1.21 1.38 1.08 1.05 1.16 1.28 1.25 1.18 0.95 0.78 0.79 0.82 0.87 0.89 0.99 1.12 1.25 1.51 1.66 1.75 1.82 1.83 1.77 1.74 1.78 1.79 1.84 1.94 1.86 1.82 1.69
0.06 0.05 0.06 0.07 0.09 0.12 0.15 0.16 0.19 0.36 0.54 0.75 0.89 1.26 1.56 1.51 1.34 1.28 1.35 1.19 0.91 0.77 0.65 0.60 0.62 0.63 0.70 0.79 0.87 1.01 1.24 1.35 1.44 1.60 1.66 1.53 1.69 1.80 1.82 1.80 1.70 1.68 1.71 1.72
0.05 0.04 0.06 0.09 0.12 0.14 0.19 0.21 0.29 0.40 0.44 0.65 1.02 1.23 1.18 1.23 1.16 1.21 1.19 1.02 0.76 0.63 0.57 0.57 0.58 0.61 0.67 0.72 0.83 1.00 1.23 1.37 1.37 1.46 1.55 1.57 1.67 1.79 1.81 1.73 1.63 1.62 1.63 1.68
0.07 0.06 0.10 0.16 0.18 0.17 0.17 0.19 0.28 0.42 0.42 0.46 0.70 0.92 0.67 0.72 0.75 0.81 0.85 0.74 0.64 0.61 0.59 0.64 0.68 0.69 0.69 0.78 0.88 1.01 1.16 1.34 1.40 1.51 1.68 1.82 1.77 1.72 1.72 1.71 1.62 1.54 1.48 1.55
0.11 0.12 0.17 0.38 0.48 0.30 0.19 0.17 0.19 0.24 0.27 0.30 0.53 0.73 0.51 0.58 0.69 0.81 0.89 0.90 0.85 0.76 0.61 0.62 0.70 0.78 0.75 0.85 1.01 1.13 1.26 1.37 1.47 1.61 1.83 1.98 1.86 1.75 1.77 1.73 1.58 1.46 1.38 1.42
0.12 0.15 0.19 0.41 0.52 0.40 0.30 0.23 0.19 0.22 0.31 0.28 0.31 0.49 0.51 0.58 0.71 0.81 0.88 0.90 0.81 0.72 0.65 0.65 0.68 0.74 0.89 0.98 1.12 1.25 1.20 1.31 1.44 1.47 1.65 1.82 1.78 1.64 1.57 1.57 1.54 1.53 1.49 1.43
0.10 0.12 0.13 0.16 0.23 0.30 0.32 0.27 0.21 0.18 0.21 0.34 0.33 0.38 0.48 0.59 0.64 0.80 0.87 0.79 0.74 0.69 0.67 0.69 0.75 0.80 0.85 0.89 0.91 0.98 0.94 1.10 1.11 1.18 1.28 1.39 1.36 1.37 1.35 1.30 1.28 1.33 1.41 1.36
0.19 0.18 0.17 0.15 0.18 0.22 0.26 0.26 0.18 0.14 0.12 0.15 0.28 0.49 0.53 0.56 0.62 0.75 0.77 0.74 0.73 0.79 0.84 0.85 0.86 0.93 0.86 0.80 0.75 0.70 0.74 0.88 0.97 1.08 1.06 1.14 1.25 1.18 1.14 1.16 1.14 1.18 1.27 1.36
0.37 0.33 0.30 0.25 0.21 0.27 0.32 0.26 0.19 0.14 0.13 0.14 0.32 0.59 0.60 0.61 0.64 0.75 0.83 0.84 0.75 0.74 0.77 0.84 0.86 0.86 0.74 0.69 0.68 0.69 0.72 0.78 0.81 0.90 1.04 1.15 1.23 1.19 1.12 1.17 1.28 1.28 1.41 1.46
0.45 0.49 0.42 0.37 0.44 0.58 0.39 0.25 0.21 0.22 0.21 0.22 0.28 0.38 0.46 0.61 0.63 0.61 0.68 0.80 0.82 0.84 0.87 0.85 0.81 0.77 0.76 0.73 0.73 0.74 0.74 0.80 0.87 0.88 0.95 1.05 1.12 1.11 1.10 1.10 1.18 1.29 1.46 1.55
0.35 0.52 0.53 0.50 0.59 0.51 0.43 0.37 0.34 0.38 0.39 0.35 0.44 0.42 0.48 0.54 0.59 0.72 0.61 0.64 0.66 0.83 0.85 0.85 0.82 0.87 0.90 0.87 0.93 0.94 0.88 0.90 0.98 1.08 1.13 1.07 1.13 1.19 1.23 1.24 1.28 1.38 1.48 1.53
0.45 0.58 0.71 0.66 0.79 0.80 0.67 0.56 0.49 0.51 0.84 0.64 0.60 0.60 0.68 0.71 0.82 0.97 0.75 0.68 0.74 0.83 0.82 0.87 0.79 0.76 0.87 0.93 1.09 1.15 1.13 1.11 1.17 1.27 1.37 1.38 1.45 1.51 1.46 1.56 1.68 1.73 1.75 1.70
0.93 0.93 0.85 0.85 0.97 0.98 0.77 0.65 0.61 1.01 1.21 0.79 0.72 0.77 0.75 0.79 0.90 0.91 0.84 0.85 0.87 0.73 0.71 0.77 0.86 0.83 0.88 1.01 1.18 1.35 1.37 1.31 1.38 1.46 1.58 1.69 1.80 1.95 2.09 2.19 2.12 2.06 2.07 2.08
1.09 1.19 1.17 1.19 1.36 1.29 0.83 0.78 1.10 1.31 0.98 1.01 0.91 0.84 0.82 0.77 0.85 0.91 0.90 0.85 0.74 0.72 0.73 0.77 0.91 0.90 0.93 1.09 1.25 1.40 1.44 1.47 1.61 1.72 1.88 2.01 2.19 2.27 2.38 2.74 2.75 2.74 2.68 2.40
1.22 1.27 1.26 1.31 1.42 1.16 1.00 1.16 1.24 1.19 1.15 1.19 1.23 1.05 0.95 0.87 0.89 0.92 0.83 0.74 0.67 0.69 0.71 0.77 0.93 1.04 1.06 1.14 1.36 1.59 1.64 1.68 1.80 1.92 2.12 2.27 2.35 2.49 2.63 2.76 2.74 2.73 2.67 2.41
1.35 1.13 1.26 1.41 1.52 1.31 1.22 1.23 1.27 1.25 1.19 1.18 1.26 1.38 1.36 1.11 0.96 0.97 0.94 0.84 0.81 0.87 0.84 0.85 0.96 1.11 1.29 1.39 1.55 1.79 1.83 1.97 2.04 2.08 2.18 2.27 2.36 2.47 2.63 2.78 2.70 2.59 2.49 2.40
1.32 1.35 1.53 1.77 1.74 1.60 1.47 1.50 1.60 1.48 1.36 1.37 1.37 1.42 1.47 1.18 0.97 0.92 0.99 0.96 0.95 1.04 1.07 1.05 1.09 1.21 1.41 1.58 1.74 1.81 1.85 2.04 2.22 2.22 2.23 2.30 2.32 2.34 2.45 2.52 2.60 2.48 2.38 2.33
1.36 1.50 1.76 1.97 1.78 1.88 1.73 1.44 1.54 1.68 1.53 1.54 1.48 1.40 1.24 1.14 1.08 1.09 1.08 1.05 1.05 1.16 1.20 1.21 1.21 1.27 1.44 1.60 1.80 1.91 2.02 2.15 2.26 2.28 2.19 2.22 2.27 2.30 2.30 2.28 2.16 2.09 2.03 1.94